EZY7292 EGHI-LEPA

Flight info

Callsign EZY7292
Flight time N/A
Altitude 35000
Route GWC UN859 SOPIL DCT BALAN DCT EVPOK DCT NARAK DCT GAI DCT LOMRA DCT ROCAN DCT IBRAP DCT LUKEV DCT LORES
Aircraft A319/M-SDE3FGHIRWY/LB1

Departure

Time 2026-05-04 23:09
Airport Southampton Airport (EGHI)

Arrival

Time N/A
Airport Palma de Mallorca Airport (LEPA)
Time Latitude Longitude Altitude Speed Heading
2026-05-04 22:50 50.94959 -1.36056 44 ft 0 kts 20°
2026-05-04 23:00 50.94955 -1.36058 44 ft 2 kts 20°
2026-05-04 23:00 50.94942 -1.36065 44 ft 2 kts 20°
2026-05-04 23:00 50.94926 -1.36074 44 ft 2 kts 21°
2026-05-04 23:01 50.94913 -1.36092 44 ft 2 kts 62°
2026-05-04 23:01 50.94909 -1.36115 44 ft 2 kts 92°
2026-05-04 23:01 50.94913 -1.36138 44 ft 2 kts 116°
2026-05-04 23:01 50.94918 -1.36161 44 ft 2 kts 108°
2026-05-04 23:02 50.94923 -1.36183 44 ft 2 kts 110°
2026-05-04 23:02 50.94928 -1.36205 43 ft 1 kts 110°
2026-05-04 23:02 50.94928 -1.36208 43 ft 0 kts 110°
2026-05-04 23:04 50.94926 -1.36198 44 ft 2 kts 110°
2026-05-04 23:05 50.94920 -1.36169 44 ft 3 kts 110°
2026-05-04 23:05 50.94907 -1.36109 44 ft 8 kts 109°
2026-05-04 23:05 50.94868 -1.36031 44 ft 10 kts 174°
2026-05-04 23:05 50.94794 -1.36066 44 ft 11 kts 199°
2026-05-04 23:06 50.94714 -1.36111 44 ft 12 kts 199°
2026-05-04 23:06 50.94624 -1.36131 43 ft 14 kts 160°
2026-05-04 23:06 50.94569 -1.36003 42 ft 14 kts 111°
2026-05-04 23:06 50.94488 -1.35981 40 ft 13 kts 200°
2026-05-04 23:07 50.94393 -1.36036 39 ft 15 kts 200°
2026-05-04 23:07 50.94324 -1.36031 38 ft 8 kts 165°
2026-05-04 23:07 50.94315 -1.36075 38 ft 5 kts 345°
2026-05-04 23:07 50.94330 -1.36069 38 ft 0 kts 21°
2026-05-04 23:08 50.94331 -1.36069 38 ft 2 kts 21°
2026-05-04 23:08 50.94600 -1.35917 41 ft 79 kts 19°
2026-05-04 23:08 50.95336 -1.35509 42 ft 144 kts 20°
2026-05-04 23:08 50.96344 -1.34959 529 ft 154 kts 20°
2026-05-04 23:09 50.97339 -1.34473 1316 ft 150 kts 20°
2026-05-04 23:09 50.98288 -1.33978 2124 ft 144 kts 21°
2026-05-04 23:09 50.99239 -1.33449 2691 ft 152 kts 21°
2026-05-04 23:09 51.00323 -1.32876 2981 ft 181 kts 14°
2026-05-04 23:10 51.01696 -1.33080 2984 ft 222 kts 339°
2026-05-04 23:10 51.02997 -1.34741 2960 ft 256 kts 307°
2026-05-04 23:10 51.03658 -1.37383 2973 ft 265 kts 278°
2026-05-04 23:10 51.03444 -1.40213 2969 ft 254 kts 248°
2026-05-04 23:11 51.02486 -1.42398 2977 ft 239 kts 226°
2026-05-04 23:11 51.01270 -1.44227 2982 ft 238 kts 222°
2026-05-04 23:11 51.00035 -1.45956 2989 ft 240 kts 221°
2026-05-04 23:11 50.98752 -1.47730 3205 ft 256 kts 221°
2026-05-04 23:12 50.97358 -1.49650 3832 ft 272 kts 221°
2026-05-04 23:12 50.95840 -1.51447 4753 ft 275 kts 206°
2026-05-04 23:12 50.94024 -1.52124 5693 ft 275 kts 178°
2026-05-04 23:12 50.92182 -1.51418 6584 ft 277 kts 151°
2026-05-04 23:13 50.90745 -1.49477 7426 ft 278 kts 124°
2026-05-04 23:13 50.89841 -1.46813 8311 ft 279 kts 114°
2026-05-04 23:13 50.89097 -1.43976 9181 ft 282 kts 111°
2026-05-04 23:13 50.88397 -1.41107 10024 ft 285 kts 111°
2026-05-04 23:14 50.87686 -1.38141 10715 ft 293 kts 111°
2026-05-04 23:14 50.86937 -1.35043 11135 ft 311 kts 111°
2026-05-04 23:14 50.86144 -1.31796 11607 ft 325 kts 111°
2026-05-04 23:14 50.85321 -1.28449 12352 ft 330 kts 111°
2026-05-04 23:15 50.84486 -1.25070 13149 ft 332 kts 111°
2026-05-04 23:15 50.83648 -1.21673 13912 ft 334 kts 111°
2026-05-04 23:15 50.82813 -1.18293 14678 ft 336 kts 111°
2026-05-04 23:15 50.81966 -1.14869 15389 ft 339 kts 111°
2026-05-04 23:16 50.81099 -1.11375 16086 ft 342 kts 111°
2026-05-04 23:16 50.80232 -1.07876 16735 ft 346 kts 111°
2026-05-04 23:16 50.79359 -1.04357 17369 ft 349 kts 111°
2026-05-04 23:16 50.78469 -1.00768 18001 ft 352 kts 111°
2026-05-04 23:17 50.77581 -0.97212 18609 ft 355 kts 113°
2026-05-04 23:17 50.76258 -0.93925 19154 ft 360 kts 132°
2026-05-04 23:17 50.74394 -0.91249 19786 ft 362 kts 139°
2026-05-04 23:17 50.72442 -0.88751 20366 ft 365 kts 141°
2026-05-04 23:18 50.70469 -0.86265 20938 ft 368 kts 141°
2026-05-04 23:18 50.68504 -0.83704 21497 ft 370 kts 138°
2026-05-04 23:18 50.66608 -0.80972 22040 ft 373 kts 137°
2026-05-04 23:18 50.64715 -0.78184 22579 ft 375 kts 137°
2026-05-04 23:19 50.62782 -0.75346 23105 ft 378 kts 137°
2026-05-04 23:19 50.60875 -0.72561 23603 ft 381 kts 137°
2026-05-04 23:19 50.58912 -0.69709 24102 ft 383 kts 137°
2026-05-04 23:19 50.56970 -0.66894 24585 ft 386 kts 138°
2026-05-04 23:20 50.54992 -0.64038 25066 ft 389 kts 138°
2026-05-04 23:20 50.53002 -0.61167 25516 ft 391 kts 138°
2026-05-04 23:20 50.50991 -0.58274 25959 ft 394 kts 138°
2026-05-04 23:20 50.48976 -0.55378 26388 ft 397 kts 139°
2026-05-04 23:21 50.46935 -0.52448 26815 ft 399 kts 139°
2026-05-04 23:21 50.44880 -0.49504 27245 ft 401 kts 139°
2026-05-04 23:21 50.42793 -0.46515 27658 ft 404 kts 139°
2026-05-04 23:21 50.40717 -0.43549 28056 ft 406 kts 139°
2026-05-04 23:22 50.38615 -0.40547 28433 ft 409 kts 139°
2026-05-04 23:22 50.36531 -0.37575 28791 ft 411 kts 140°
2026-05-04 23:22 50.34398 -0.34537 29143 ft 414 kts 140°
2026-05-04 23:22 50.32265 -0.31502 29493 ft 416 kts 141°
2026-05-04 23:23 50.30150 -0.28497 29843 ft 418 kts 141°
2026-05-04 23:23 50.27975 -0.25411 30189 ft 420 kts 141°
2026-05-04 23:23 50.25826 -0.22364 30654 ft 419 kts 141°
2026-05-04 23:23 50.23678 -0.19320 31136 ft 417 kts 141°
2026-05-04 23:24 50.21543 -0.16302 31549 ft 415 kts 141°
2026-05-04 23:24 50.19403 -0.13283 31931 ft 414 kts 141°
2026-05-04 23:24 50.17287 -0.10301 32289 ft 414 kts 141°
2026-05-04 23:24 50.15115 -0.07372 32642 ft 412 kts 144°
2026-05-04 23:25 50.12822 -0.04724 32976 ft 410 kts 149°
2026-05-04 23:25 50.10441 -0.02398 33287 ft 408 kts 153°
2026-05-04 23:25 50.07914 -0.00340 33551 ft 407 kts 158°
2026-05-04 23:25 50.05344 0.01369 33788 ft 407 kts 162°
2026-05-04 23:26 50.02676 0.02776 33994 ft 407 kts 166°
2026-05-04 23:26 49.99936 0.03907 34203 ft 407 kts 168°
2026-05-04 23:26 49.97212 0.04984 34439 ft 407 kts 168°
2026-05-04 23:26 49.94436 0.06076 34693 ft 407 kts 168°
2026-05-04 23:27 49.91694 0.07155 34901 ft 409 kts 168°